Погода в Каменске-Уральском

Россия / Свердловская область     56°24′53″N   61°55′07″E
темп.,
°C
ветер,
м/с
пор.,
м/с
влажн.,
%
обл.,
%
осадки,
мм/ч
давл.,
гПа
погр.,
м
7 мая, пт
пт723:00+6з37560 0.0 1016121
02:00+5з36620 0.0 101799
05:00+4з34705 0.0 101959
08:00+10з355820 0.0 1020304
11:00+16зюз454528 0.0 10191277
14:00+19зюз45335 0.0 10191845
17:00+20юз34295 0.0 10182134
20:00+17ю33435 0.0 101839
8 мая, сб
сб823:00+13ююз375045 0.0 101995
02:00+11юз235374 0.0 101948
05:00+10юз225468 0.0 101917
08:00+14ююз2343100 0.0 1019205
11:00+19ю3329100 0.0 10181273
14:00+20ю2225100 0.0 10172491
17:00+20ю222479 0.0 10172763
20:00+17ю223669 0.0 101614
9 мая, вс
вс923:00+14з0039100 0.0 101711
02:00+13с2241100 0.0 101730
05:00+11ссв225299 0.0 101719
08:00+15св234592 0.0 1017174
11:00+20св353434 0.0 10171673
14:00+21в5728100 0.0 10172849
17:00+19в3632100 0.1 10181546
20:00+17с233698 0.0 101829
10 мая, пн
пн1023:00+13ссв474797 0.0 1020111
02:00+12св486794 0.0 1020149
05:00+11всв347594 0.0 102250
08:00+16всв245839 0.0 1023313
11:00+20в3342100 0.0 10231346
14:00+21св233555 0.0 10232050
17:00+22ссз3331100 0.0 10222329
20:00+18сз35465 0.0 102278
11 мая, вт
вт1123:00+15сз345415 0.0 102247
02:00+13сз3464100 0.0 102259
05:00+12сз3365100 0.0 102329
08:00+17зсз3451100 0.0 1023238
11:00+19сз6650100 0.0 1023810
14:00+18зсз5657100 0.0 1024960
17:00+18зсз355596 0.1 10231162
20:00+14с387378 0.1 1024362